TimeCDT,TemperatureF,Dew PointF,Humidity,Sea Level PressureIn,VisibilityMPH,Wind Direction,Wind SpeedMPH,Gust SpeedMPH,PrecipitationIn,Events,Conditions,WindDirDegrees,DateUTC
12:14 AM,70.7,61.3,72,29.73,10.0,Calm,Calm,-,N/A,,Mostly Cloudy,0,2013-05-19 05:14:00
12:33 AM,71.1,61.3,71,29.74,10.0,Calm,Calm,-,N/A,,Overcast,0,2013-05-19 05:33:00
12:54 AM,70.7,61.5,73,29.73,10.0,Calm,Calm,-,N/A,,Overcast,0,2013-05-19 05:54:00
1:13 AM,70.9,61.7,73,29.73,10.0,SSE,3.5,-,N/A,,Overcast,160,2013-05-19 06:13:00
1:33 AM,71.6,61.7,71,29.72,10.0,SSE,6.9,-,N/A,,Mostly Cloudy,160,2013-05-19 06:33:00
1:53 AM,72.0,62.1,71,29.71,10.0,South,13.8,19.6,N/A,,Mostly Cloudy,170,2013-05-19 06:53:00
2:14 AM,72.1,62.1,70,29.70,10.0,South,15.0,20.7,N/A,,Mostly Cloudy,170,2013-05-19 07:14:00
2:33 AM,71.6,62.1,72,29.70,10.0,SSE,12.7,19.6,N/A,,Scattered Clouds,160,2013-05-19 07:33:00
2:53 AM,71.6,62.4,73,29.69,10.0,SSE,10.4,17.3,N/A,Thunderstorm,Scattered Clouds,160,2013-05-19 07:53:00
3:14 AM,71.1,63.3,76,29.73,10.0,SW,27.6,35.7,N/A,Rain-Thunderstorm,Thunderstorms and Rain,220,2013-05-19 08:14:00
3:34 AM,66.2,63.1,90,29.73,10.0,Calm,Calm,-,0.03,Rain-Thunderstorm,Light Thunderstorms and Rain,0,2013-05-19 08:34:00
3:53 AM,65.1,62.6,92,29.71,7.0,Calm,Calm,-,0.05,Rain-Thunderstorm,Light Thunderstorms and Rain,0,2013-05-19 08:53:00
4:13 AM,64.8,62.6,93,29.70,10.0,Calm,Calm,-,N/A,Thunderstorm,Mostly Cloudy,0,2013-05-19 09:13:00
4:33 AM,64.2,62.2,93,29.67,10.0,Calm,Calm,-,N/A,,Light Drizzle,0,2013-05-19 09:33:00
4:53 AM,63.7,62.1,94,29.69,7.0,Calm,Calm,-,N/A,,Scattered Clouds,0,2013-05-19 09:53:00
5:14 AM,63.9,62.6,96,29.69,7.0,Calm,Calm,-,N/A,Rain,Light Rain,0,2013-05-19 10:14:00
5:34 AM,64.4,62.8,94,29.65,5.0,Calm,Calm,-,N/A,Rain,Light Rain,0,2013-05-19 10:34:00
5:54 AM,63.9,62.6,96,29.62,7.0,Calm,Calm,-,N/A,,Mostly Cloudy,0,2013-05-19 10:54:00
6:13 AM,64.4,63.0,95,29.59,5.0,Calm,Calm,-,0.01,Rain,Light Rain,0,2013-05-19 11:13:00
6:33 AM,64.6,63.5,96,29.59,4.0,Calm,Calm,-,0.01,,Scattered Clouds,0,2013-05-19 11:33:00
7:14 AM,65.5,63.9,94,29.65,5.0,Calm,Calm,-,N/A,,Mostly Cloudy,0,2013-05-19 12:14:00
7:34 AM,65.7,63.5,93,29.66,7.0,South,3.5,-,N/A,,Overcast,170,2013-05-19 12:34:00
7:54 AM,66.0,63.3,91,29.66,7.0,SSE,3.5,-,N/A,,Mostly Cloudy,150,2013-05-19 12:54:00
8:13 AM,66.2,63.0,89,29.67,10.0,Calm,Calm,-,N/A,,Scattered Clouds,0,2013-05-19 13:13:00
8:33 AM,66.9,63.0,87,29.66,10.0,South,6.9,-,N/A,,Clear,170,2013-05-19 13:33:00
8:54 AM,67.8,63.3,85,29.65,10.0,SSE,11.5,19.6,N/A,,Clear,160,2013-05-19 13:54:00
9:12 AM,68.9,63.3,82,29.67,10.0,South,13.8,18.4,N/A,,Clear,170,2013-05-19 14:12:00
9:54 AM,72.1,62.8,72,29.65,10.0,South,11.5,23.0,N/A,,Scattered Clouds,180,2013-05-19 14:54:00
10:14 AM,72.9,62.1,69,29.65,10.0,South,11.5,19.6,N/A,,Clear,170,2013-05-19 15:14:00
10:34 AM,74.5,61.5,64,29.65,10.0,South,12.7,17.3,N/A,,Clear,190,2013-05-19 15:34:00
10:53 AM,74.3,60.8,63,29.65,10.0,South,15.0,21.9,N/A,,Scattered Clouds,190,2013-05-19 15:53:00
11:13 AM,74.1,61.3,64,29.66,10.0,South,17.3,24.2,N/A,,Scattered Clouds,190,2013-05-19 16:13:00
11:33 AM,74.3,61.9,65,29.67,10.0,SSW,18.4,23.0,N/A,,Scattered Clouds,200,2013-05-19 16:33:00
11:54 AM,73.6,61.5,66,29.67,10.0,SSW,15.0,21.9,N/A,,Mostly Cloudy,200,2013-05-19 16:54:00
12:13 PM,72.1,61.3,69,29.68,10.0,South,15.0,23.0,N/A,,Overcast,180,2013-05-19 17:13:00
12:34 PM,72.3,61.3,68,29.65,10.0,SSW,13.8,23.0,N/A,,Mostly Cloudy,200,2013-05-19 17:34:00
12:53 PM,72.0,60.8,68,29.62,10.0,SW,10.4,-,N/A,,Mostly Cloudy,230,2013-05-19 17:53:00
1:13 PM,71.6,61.3,70,29.62,10.0,Calm,Calm,-,N/A,,Mostly Cloudy,0,2013-05-19 18:13:00
1:34 PM,71.6,61.2,70,29.63,10.0,Calm,Calm,-,N/A,,Mostly Cloudy,0,2013-05-19 18:34:00
2:14 PM,70.3,63.0,77,29.64,10.0,Calm,Calm,-,N/A,Rain,Rain,0,2013-05-19 19:14:00
2:33 PM,69.4,64.0,83,29.65,10.0,Calm,Calm,-,N/A,Rain,Light Rain,0,2013-05-19 19:33:00
3:13 PM,68.9,62.8,81,29.65,10.0,Calm,Calm,-,N/A,Rain,Light Rain,0,2013-05-19 20:13:00
3:33 PM,68.9,62.2,79,29.64,10.0,Calm,Calm,-,N/A,Rain,Light Rain,0,2013-05-19 20:33:00
3:54 PM,68.2,63.3,84,29.64,10.0,SW,4.6,-,N/A,Rain,Light Rain,220,2013-05-19 20:54:00
4:14 PM,67.8,63.1,85,29.64,7.0,Calm,Calm,-,N/A,Rain,Rain,0,2013-05-19 21:14:00
4:34 PM,66.7,62.6,86,29.64,5.0,Calm,Calm,-,0.01,Rain,Rain,0,2013-05-19 21:34:00
4:53 PM,66.4,63.0,89,29.64,5.0,Calm,Calm,-,0.04,Rain,Rain,0,2013-05-19 21:53:00
5:13 PM,66.4,62.8,88,29.64,5.0,Calm,Calm,-,0.02,Rain,Light Rain,0,2013-05-19 22:13:00
5:33 PM,67.1,62.2,84,29.63,10.0,Calm,Calm,-,0.02,Rain,Light Rain,0,2013-05-19 22:33:00
5:53 PM,67.5,62.4,84,29.62,10.0,Calm,Calm,-,0.02,,Scattered Clouds,0,2013-05-19 22:53:00
6:13 PM,69.6,64.2,83,29.61,10.0,Calm,Calm,-,N/A,Rain,Light Rain,0,2013-05-19 23:13:00
6:34 PM,69.8,63.3,80,29.57,10.0,Calm,Calm,-,N/A,,Scattered Clouds,0,2013-05-19 23:34:00
6:53 PM,68.9,64.4,86,29.57,7.0,Calm,Calm,-,N/A,,Scattered Clouds,0,2013-05-19 23:53:00
7:14 PM,69.6,63.3,80,29.57,10.0,Calm,Calm,-,N/A,,Scattered Clouds,0,2013-05-20 00:14:00
7:33 PM,68.5,62.2,80,29.58,10.0,Calm,Calm,-,N/A,,Scattered Clouds,0,2013-05-20 00:33:00
7:53 PM,68.0,63.7,86,29.58,10.0,Calm,Calm,-,N/A,,Scattered Clouds,0,2013-05-20 00:53:00
8:13 PM,67.5,63.5,87,29.58,10.0,Calm,Calm,-,N/A,,Clear,0,2013-05-20 01:13:00
8:34 PM,67.1,62.8,86,29.58,10.0,Calm,Calm,-,N/A,,Clear,0,2013-05-20 01:34:00
8:54 PM,65.3,62.8,92,29.58,7.0,Calm,Calm,-,N/A,,Clear,0,2013-05-20 01:54:00
9:13 PM,64.8,62.6,93,29.58,7.0,Calm,Calm,-,N/A,,Clear,0,2013-05-20 02:13:00
9:34 PM,64.0,62.1,93,29.57,5.0,Calm,Calm,-,N/A,,Clear,0,2013-05-20 02:34:00
9:53 PM,63.1,61.5,94,29.56,5.0,Calm,Calm,-,N/A,,Clear,0,2013-05-20 02:53:00
10:13 PM,63.3,61.7,94,29.55,5.0,Calm,Calm,-,N/A,,Clear,0,2013-05-20 03:13:00
10:34 PM,62.6,61.0,94,29.56,5.0,Calm,Calm,-,N/A,,Clear,0,2013-05-20 03:34:00
11:13 PM,62.6,61.0,94,29.57,5.0,Calm,Calm,-,N/A,,Clear,0,2013-05-20 04:13:00
11:33 PM,62.6,61.0,94,29.57,4.0,Calm,Calm,-,N/A,,Clear,0,2013-05-20 04:33:00
11:54 PM,62.4,60.8,94,29.57,5.0,Calm,Calm,-,N/A,,Scattered Clouds,0,2013-05-20 04:54:00